Location: Bleckley County High School
(32.3932°N, 83.3452°W)
Time: 07:08:04
(UTC+00:00)

Daily predictions for brighter satellites

Satellite Brightness Start Highest point End
(mag) Time Altitude Azimuth Time Altitude Azimuth Time Altitude Azimuth
CZ-4B R/B 3.3 12:00:37 10° NNE 12:06:17 89° WNW 12:11:51 10° SSW
Cosmos 2278 Rocket 2.3 12:01:01 10° NNW 12:06:34 57° WSW 12:12:05 10° S
NOSS 3-2 (C) 3.7 12:02:28 10° SSW 12:07:49 69° ESE 12:13:47 10° NE
PAYLOAD B 4.4 12:04:41 10° N 12:10:08 56° WNW 12:15:35 10° SSW
Cosmos 2237 Rocket 3.2 12:06:30 10° WSW 12:10:55 23° WNW 12:15:23 10° N
Cosmos 2279 Rocket 4.1 23:14:58 10° N 23:21:09 60° E 23:27:18 10° SSE
YAOGAN 1 4.1 23:21:30 10° ESE 23:23:53 15° ENE 23:26:16 10° NE
Cosmos 1892 Rocket 3.5 23:19:47 10° S 23:24:05 70° E 23:28:25 10° NNE
Cosmos 773 Rocket 4.1 23:21:29 10° N 23:26:32 54° ENE 23:31:31 10° SSE
CZ-4B R/B 3.5 23:21:18 10° S 23:26:46 77° WSW 23:32:23 10° NNW
Cosmos 1606 Rocket 3.5 23:24:54 10° N 23:29:18 77° E 23:33:43 10° S
Cosmos 1818 3.6 23:24:10 10° SSW 23:29:33 78° ESE 23:35:00 10° NNE
H-2A R/B 3.7 23:26:11 10° N 23:30:14 36° WNW 23:34:11 10° SW
Centaur D-1AR AC-48 4.3 23:09:07 10° WSW 23:32:20 37° S 23:37:34 10° ESE
USA 267 4.0 23:27:02 10° ENE 23:32:51 34° SE 23:38:37 10° S
X-37B 2.2 23:36:48 10° W 23:39:33 26° NNW 23:42:20 10° NE
Cosmos 2228 3.4 23:35:49 10° NNW 23:40:03 68° W 23:44:19 10° S
Meteor 2-10 Rocket 3.8 23:35:15 10° N 23:40:30 48° E 23:45:31 10° SSE
SJ 16-02 1.4 23:36:27 10° S 23:40:47 62° ESE 23:45:08 10° NNE
Cosmos 1603 4.3 23:37:16 10° NNW 23:42:55 63° WSW 23:48:34 10° S
DELTA 2 R/B (1) 3.7 23:39:05 10° WNW 23:44:39 80° SSW 23:50:12 10° ESE
SKYMED 2 3.8 23:41:56 10° N 23:46:16 74° WNW 23:50:34 10° SSW
YAOGAN 3 4.5 23:42:48 10° SSE 23:47:08 73° ENE 23:51:29 10° N
MOS 1 Rocket 3.0 23:44:19 10° NNE 23:48:36 83° ESE 23:52:54 10° S
Cosmos 1340 4.0 23:46:35 10° SE 23:49:18 19° E 23:50:17 18° ENE
Cosmos 1455 3.1 23:46:25 10° NNE 23:49:44 27° E 23:53:02 10° SE
Cosmos 1703 4.0 23:46:39 10° SSE 23:50:02 29° E 23:53:19 11° NNE
ISS -1.6 23:51:19 10° W 23:53:57 21° NW 23:56:36 10° NNE
